DELTA 1 DEB

Satellite information

Favourite Embed

Satellite Type and Status

DEBRISIN ORBIT

Key statistics

Satellite DELTA 1 DEB at a glance.

Uptime

17994

Days in orbit

Revolutions

≈ 12.6

Per day

Orbit

SSO

Sun Synchronous Orbit

Inclination

101.4

Latest

Satellite identification and parameters

Extended collection of information and parameters for DELTA 1 DEB.

Object identification

Identified? True

Debris? True

Object name: DELTA 1 DEB

International designator: 1976-077GM

Object number (NORAD): 40768

Object ID (CCSDS): 40768

Country: UNITED STATES OF AMERICA (US)

Current information (Y/N): Y

RCS size: SMALL

Orbital parameters

Period: 113.927 minutes

Inclination: 101.3812 deg

SMA: 7784.768 km

Apoapsis: 1444.803 km

Periapsis: 1368.463 km

RAAN: 286.8073 deg

Eccentricy: 0.00490314

Argument of periapsis: 125.092 deg

Mean anomaly: 235.477 deg

Mean motion: 12.63962625 rev/day

Mean motion (dot): 0.00000569 rev/day2

B* drag term: 0.0033300005 1/REarth

Two-line elements (TLE)

Creation date: Nov. 2, 2025, 5:34 p.m.

Reference frame: TEME

Reference center: EARTH

Epoch: Nov. 2, 2025, 5:13 a.m. UTC

TLE line 0: 0 DELTA 1 DEB

TLE line 1: 1 40768U 76077GM 25306.21795563 .00000569 00000-0 33300-2 0 9997

TLE line 2: 2 40768 101.3812 286.8073 0049031 125.0920 235.4770 12.63962625550373

Live tracking on map

Real-time ground track for satellite DELTA 1 DEB.

In-orbit conjunctions

A list of the most updated potential collisions computed for object DELTA 1 DEB.

Target Orbit TCA Probability of collision Miss distance Type
DELTA 1 DEB SSO 2025-01-10 19:11:50 0.0001027078 169.0 (m) DEBRIS
SL-14 DEB LEO 2024-08-13 10:27:17 0.0001340794 173.0 (m) DEBRIS

Associated space launch

Meteorological satellite using radiometric imaging

DELTA 1 DEB was lifted into orbit during the mission ‘Delta 2310 | NOAA 5’, on board a Delta 2310 space rocket.

The launch took place on July 29, 1976, 5:07 p.m. from Space Launch Complex 2W.

For more information about the launch, click the button.

Launch to space Delta 2310 | NOAA 5
Delta 2310 | NOAA 5

Agency: N/A

Status: Launch Successful

Launch date: July 29, 1976, 5:07 p.m. UTC

Rocket: Delta 2310

Launch pad: Space Launch Complex 2W

Location: Vandenberg SFB, CA, USA

...

Latest news about this satellite

There are no fresh news available about this satellite. Check back as we update our databases every day.


Newsletter sign-up

Weekly statistics, charts and insights to help you stay on top of the space industry.